FW9594 Weather Reports


time (UTC)temp
C
wind
direction
speed
KPH
gust
KPH
rain 1hr
cm
rain 24hr
cm
rain mn
cm
humidity
%
barometer
mb
20260510032626 25 113 0.0 0.0 0.00 0.00 0.00 64 1008.1
20260510031625 25 114 0.0 0.0 0.00 0.00 0.00 62 1008.3
20260510030625 25 97 0.0 0.0 0.00 0.00 0.00 61 1008.1
20260510025627 25 116 0.0 0.0 0.00 0.00 0.00 60 1008.2
20260510025059 26 118 0.0 0.0 0.00 0.00 0.00 60 1008.1
20260510023622 26 106 0.0 0.0 0.00 0.00 0.00 58 1008.1
20260510023057 26 102 0.0 1.6 0.00 0.00 0.00 58 1008.1
20260510021617 26 96 0.0 0.0 0.00 0.00 0.00 58 1007.9
20260510020617 26 96 0.0 0.0 0.00 0.00 0.00 57 1007.7
20260510015614 27 111 0.0 1.6 0.00 0.00 0.00 56 1007.7
20260510014613 27 99 0.0 3.2 0.00 0.00 0.00 55 1007.5
20260510014527 27 179 0.0 3.2 0.00 0.00 0.00 55 1007.6
20260510012612 28 114 0.0 3.2 0.00 0.00 0.00 55 1007.4
20260510011608 28 90 1.6 4.8 0.00 0.00 0.00 56 1007.2
20260510010609 28 87 1.6 3.2 0.00 0.00 0.00 56 1007.0
20260510005607 29 92 1.6 8.0 0.00 0.00 0.00 55 1006.9
20260510004604 30 117 3.2 8.0 0.00 0.00 0.00 54 1006.9
20260510003606 31 97 1.6 4.8 0.00 0.00 0.00 54 1006.9
20260510002602 31 94 1.6 8.0 0.00 0.00 0.00 54 1006.9
20260510001602 31 82 1.6 4.8 0.00 0.00 0.00 53 1006.9
20260510000601 31 162 3.2 4.8 0.00 0.00 0.00 52 1006.9
20260509235602 32 94 3.2 4.8 0.00 0.00 0.00 48 1007.0
20260509234601 32 272 1.6 4.8 0.00 0.00 0.00 45 1007.0
20260509233602 33 296 0.0 1.6 0.00 0.00 0.00 40 1007.0
20260509232601 32 296 1.6 4.8 0.00 0.00 0.00 43 1007.2
20260509231601 32 257 1.6 8.0 0.00 0.00 0.00 44 1007.1
20260509231042 33 276 0.0 3.2 0.00 0.00 0.00 43 1007.0
20260509225601 33 289 0.0 4.8 0.00 0.00 0.00 39 1007.0
20260509224602 33 214 0.0 4.8 0.00 0.00 0.00 44 1007.0
20260509223602 33 203 3.2 6.4 0.00 0.00 0.00 44 1007.1
20260509222602 31 179 1.6 6.4 0.00 0.00 0.00 46 1007.0
20260509221600 31 13 4.8 8.0 0.00 0.00 0.00 46 1007.1
20260509221528 32 158 0.0 9.7 0.00 0.00 0.00 45 1007.2
20260509215601 31 82 4.8 9.7 0.00 0.00 0.00 45 1007.1
20260509214601 32 38 4.8 8.0 0.00 0.00 0.00 44 1007.2
20260509213602 31 93 4.8 11.3 0.00 0.00 0.00 48 1007.3
20260509213041 31 45 3.2 11.3 0.00 0.00 0.00 51 1007.4
20260509211602 31 63 8.0 17.7 0.00 0.00 0.00 47 1007.6
20260509210602 31 69 3.2 6.4 0.00 0.00 0.00 50 1007.7
20260509210035 31 358 3.2 9.7 0.00 0.00 0.00 51 1007.9
20260509204601 32 92 1.6 4.8 0.00 0.00 0.00 50 1007.9
20260509203602 31 4 1.6 9.7 0.00 0.00 0.00 53 1008.0
20260509202602 30 18 4.8 9.7 0.00 0.00 0.00 57 1008.3
20260509201602 31 58 3.2 11.3 0.00 0.00 0.00 50 1008.3
20260509200601 30 80 1.6 8.0 0.00 0.00 0.00 55 1008.3
20260509195601 30 16 1.6 11.3 0.00 0.00 0.00 57 1008.6
20260509194601 31 44 3.2 9.7 0.00 0.00 0.00 56 1008.6
20260509193601 30 51 4.8 9.7 0.00 0.00 0.00 53 1008.8
20260509192602 29 285 1.6 6.4 0.00 0.00 0.00 58 1008.8
20260509191601 28 49 3.2 14.5 0.00 0.00 0.00 60 1009.0
20260509191518 29 21 3.2 14.5 0.00 0.00 0.00 63 1008.9
20260509185601 29 51 3.2 11.3 0.00 0.00 0.00 63 1009.0
20260509185034 28 59 6.4 11.3 0.00 0.00 0.00 62 1009.1
20260509183601 28 58 6.4 9.7 0.00 0.00 0.00 64 1009.2
20260509182601 28 130 3.2 14.5 0.00 0.00 0.00 66 1009.2
20260509181602 28 16 6.4 16.1 0.00 0.00 0.00 63 1009.3
20260509180601 28 48 3.2 14.5 0.00 0.00 0.00 64 1009.4
20260509175600 28 41 6.4 17.7 0.00 0.00 0.00 62 1009.4
20260509174601 27 35 9.7 19.3 0.00 0.00 0.00 65 1009.4
20260509173601 28 290 6.4 14.5 0.00 0.00 0.00 61 1009.5
20260509172601 27 30 4.8 17.7 0.00 0.00 0.00 62 1009.8
20260509171601 27 54 3.2 6.4 0.00 0.00 0.00 63 1009.9
20260509171055 27 303 3.2 22.5 0.00 0.00 0.00 63 1010.0
20260509165602 27 37 4.8 16.1 0.00 0.00 0.00 62 1010.0
20260509165034 26 42 9.7 22.5 0.00 0.00 0.00 63 1010.0
20260509163601 26 38 9.7 16.1 0.00 0.00 0.00 64 1010.1
20260509162601 26 37 9.7 17.7 0.00 0.00 0.00 65 1010.1
20260509161601 26 37 6.4 11.3 0.00 0.00 0.00 65 1010.1
20260509160601 26 63 6.4 11.3 0.00 0.00 0.00 65 1010.0
20260509155602 26 8 4.8 9.7 0.00 0.00 0.00 62 1010.0
20260509154601 26 30 6.4 16.1 0.00 0.00 0.00 65 1009.9
20260509153602 26 24 6.4 14.5 0.00 0.00 0.00 63 1009.9
20260509153040 26 250 3.2 14.5 0.00 0.00 0.00 63 1010.0
20260509152049 25 51 9.7 17.7 0.00 0.00 0.00 65 1010.0
20260509150601 25 41 6.4 16.1 0.00 0.00 0.00 73 1010.0
20260509150041 24 347 4.8 16.1 0.00 0.00 0.00 75 1010.0
20260509144601 24 34 4.8 14.5 0.00 0.00 0.00 77 1010.0
20260509143602 23 38 8.0 11.3 0.00 0.00 0.00 78 1010.0
20260509142557 23 4 3.2 11.3 0.00 0.00 0.00 80 1009.9
20260509141552 23 296 3.2 11.3 0.00 0.00 0.00 80 1009.9
20260509140547 22 52 4.8 11.3 0.00 0.00 0.00 80 1010.0
20260509135542 22 300 3.2 9.7 0.00 0.00 0.00 81 1010.0
20260509134537 22 326 3.2 11.3 0.00 0.00 0.00 82 1009.9
20260509133531 22 39 4.8 14.5 0.00 0.00 0.00 83 1009.8
20260509132533 21 54 4.8 11.3 0.00 0.00 0.00 84 1009.6
20260509131530 21 38 11.3 14.5 0.00 0.00 0.00 85 1009.6
20260509130527 21 49 6.4 14.5 0.00 0.00 0.00 86 1009.8
20260509125523 20 41 6.4 14.5 0.00 0.00 0.00 88 1009.6
20260509124523 20 16 4.8 9.7 0.00 0.03 0.00 89 1009.6
20260509123522 20 28 8.0 14.5 0.00 0.05 0.00 89 1009.6
20260509122522 20 49 3.2 9.7 0.00 0.10 0.00 90 1009.8
20260509121522 19 23 4.8 8.0 0.00 0.13 0.00 90 1009.6
20260509120522 19 265 1.6 6.4 0.00 0.38 0.00 90 1009.6
20260509115958 19 49 4.8 8.0 0.00 0.38 0.00 90 1009.4
20260509114522 19 285 4.8 8.0 0.00 0.38 0.00 89 1009.4
20260509114005 19 37 1.6 9.7 0.00 0.38 0.00 88 1009.2
20260509112523 19 75 3.2 9.7 0.00 0.38 0.00 87 1008.7
20260509111523 20 281 4.8 8.0 0.00 0.38 0.00 86 1008.7
20260509110523 20 337 3.2 8.0 0.00 0.38 0.00 86 1008.4
20260509105522 20 271 6.4 8.0 0.00 0.38 0.00 86 1008.2
20260509104522 20 286 3.2 4.8 0.00 0.38 0.00 87 1007.9
20260509103523 20 278 0.0 0.0 0.00 0.41 0.00 87 1007.9
20260509102522 20 276 0.0 3.2 0.00 0.74 0.00 87 1007.8
20260509102000 20 276 0.0 3.2 0.00 0.89 0.00 87 1007.7
20260509100523 20 279 0.0 3.2 0.00 0.89 0.00 86 1007.7
20260509095522 20 281 0.0 1.6 0.00 0.91 0.00 86 1007.7
20260509095002 20 333 0.0 0.0 0.00 0.94 0.00 85 1007.4
20260509093525 20 37 0.0 0.0 0.00 0.94 0.00 84 1007.2
20260509092524 21 345 0.0 0.0 0.00 0.94 0.00 82 1007.3
20260509091524 21 231 0.0 1.6 0.00 0.94 0.00 81 1006.9
20260509090524 21 320 0.0 6.4 0.00 0.94 0.00 83 1007.0
20260509085524 21 279 0.0 4.8 0.00 0.94 0.00 85 1007.4
20260509085009 21 299 1.6 6.4 0.00 0.94 0.00 85 1007.1
20260509083524 21 51 0.0 6.4 0.00 0.97 0.00 85 1005.6
20260509083008 21 221 3.2 9.7 0.00 0.97 0.00 85 1005.1
20260509081523 21 175 1.6 11.3 0.00 1.02 0.00 86 1005.5
20260509080524 21 214 1.6 6.4 0.00 1.02 0.00 86 1006.2
20260509075524 21 138 3.2 9.7 0.00 1.04 0.00 86 1006.9
20260509074955 21 212 4.8 9.7 0.00 1.07 0.00 86 1007.6
20260509073524 21 171 1.6 11.3 0.00 1.07 0.00 87 1008.3
20260509072524 21 230 3.2 9.7 0.00 1.09 0.00 87 1008.3
20260509071524 21 227 3.2 9.7 0.00 1.14 0.00 87 1008.7
20260509070523 20 233 3.2 9.7 0.00 1.14 0.00 88 1009.1
20260509065525 20 317 0.0 9.7 0.00 1.14 0.00 88 1009.3
20260509065031 20 219 1.6 9.7 0.00 1.14 0.00 88 1009.5
20260509063523 20 296 6.4 9.7 0.00 1.14 0.00 88 1009.9
20260509062524 20 292 6.4 8.0 0.00 1.14 0.00 89 1009.9
20260509061524 20 274 1.6 6.4 0.00 1.14 0.00 88 1009.8
20260509061441 20 180 1.6 3.2 0.00 1.14 0.00 87 1009.5
20260509055523 20 230 0.0 0.0 0.00 1.14 0.00 86 1009.8
20260509054523 20 154 0.0 0.0 0.00 1.14 0.00 85 1009.5
20260509053959 20 114 0.0 0.0 0.00 1.14 0.00 85 1010.1
20260509052524 21 113 0.0 1.6 0.00 1.14 0.00 83 1010.4
20260509051523 21 37 0.0 3.2 0.00 1.14 0.00 83 1010.6
20260509050523 21 8 3.2 8.0 0.00 1.14 0.00 84 1010.8
20260509045959 21 38 4.8 6.4 0.00 1.14 1.14 85 1010.8
20260509044523 21 103 0.0 0.0 0.00 1.14 1.14 83 1009.5
20260509043523 21 103 0.0 0.0 0.00 1.14 1.14 82 1009.5
20260509042523 21 103 0.0 0.0 0.00 1.14 1.14 81 1009.6
20260509041523 21 103 0.0 0.0 0.00 1.14 1.14 81 1009.3
20260509040524 21 104 0.0 6.4 0.00 1.14 1.14 80 1009.0
20260509035524 22 214 0.0 1.6 0.00 1.14 1.14 80 1008.9
20260509034523 22 243 0.0 1.6 0.00 1.14 1.14 79 1008.6
20260509033523 22 157 0.0 4.8 0.00 1.14 1.14 79 1009.0